Regional Weather Roundup
Issued by NWS

Home | Current Version | Previous Version | Graphics & Text | Print | Product List | Glossary On
Versions: 1 2 3 4 5 6 7 8 9 10 11 12 13 14 15 16 17 18 19 20 21 22 23 24 25 26 27 28 29 30 31 32 33 34 35 36 37 38 39 40 41 42 43 44 45 46 47 48 49 50
000
ASUS43 KOAX 220310
RWRNE

WEATHER ROUNDUP FOR NEBRASKA
NATIONAL WEATHER SERVICE OMAHA NE
1000 PM CDT THU SEP 21 2017

NOTES: SATELLITE DATA IS BEING USED TO AUGMENT CLOUD COVER ABOVE
       12000 FEET.
       "FAIR" INDICATES FEW OR NO CLOUDS BELOW 12,000 FEET WITH NO
       SIGNIFICANT WEATHER AND/OR OBSTRUCTIONS TO VISIBILITY.


NEZ001>004-019>022-054>056-220400-
NEBRASKA PANHANDLE

CITY           SKY/WX    TMP DP  RH WIND       PRES   REMARKS
SCOTTSBLUFF    CLEAR     63  45  51 SE3       29.63R
ALLIANCE       CLEAR     62  44  51 E10       29.64S
CHADRON        CLEAR     66  37  34 NE12      29.66R
GORDON         FAIR      59  46  61 CALM      29.66R
KIMBALL        CLEAR     61  41  47 E5        29.68S
SIDNEY         CLEAR     61  32  33 S9        29.66S
$$

NEZ057>060-069>072-079>082-220400-
SOUTHWEST NEBRASKA

CITY           SKY/WX    TMP DP  RH WIND       PRES   REMARKS
NORTH PLATTE   CLEAR     83  41  22 SE14G21   29.64R
IMPERIAL       CLEAR     77  34  21 SE16      29.64R
LEXINGTON      CLEAR     72  45  37 S8        29.68R
MCCOOK           N/A     82  42  24 S15       29.65R
OGALLALA       CLEAR     77  42  28 SE13G18   29.63R
$$

NEZ005>010-023>029-035>040-094-220400-
NORTH CENTRAL NEBRASKA

CITY           SKY/WX    TMP DP  RH WIND       PRES   REMARKS
VALENTINE      CLEAR     76  51  41 NE7       29.63F
AINSWORTH      CLEAR     74  62  67 SE10      29.64F
BROKEN BOW     CLEAR     72  49  44 SE9       29.67R
O`NEILL        CLEAR     81  68  64 SE17G23   29.67S
ORD            CLEAR     81  64  56 SE13      29.66S
THEDFORD       CLEAR     73  46  38 SE12      29.66S
$$

NEZ041-046>049-061>064-073>077-083>087-220400-
SOUTH CENTRAL NEBRASKA

CITY           SKY/WX    TMP DP  RH WIND       PRES   REMARKS
GRAND ISLAND   CLEAR     82  71  69 SE15G23   29.71R
AURORA         CLEAR     82  69  64 SE17      29.72R
HASTINGS       CLEAR     85  67  54 S15G23    29.72R
HEBRON         CLEAR     86  71  60 S16G26    29.75R HX  91
HOLDREGE       CLEAR     78  52  39 S13       29.69R
KEARNEY        CLEAR     80  64  58 S14       29.70R
YORK           CLEAR     82  72  69 SE13      29.74R
$$

NEZ011>018-030>034-042>045-220400-
NORTHEAST NEBRASKA

CITY           SKY/WX    TMP DP  RH WIND       PRES   REMARKS
NORFOLK        CLEAR     81  71  71 SE17      29.72R
ALBION         PTCLDY    80  70  70 SE10      29.71S
BLAIR          CLEAR     83  73  71 S16G25    29.79R
COLUMBUS       CLEAR     83  73  72 SE13G21   29.73R
FREMONT        CLEAR     83  72  69 SE14G21   29.77R
TEKAMAH        CLEAR     82  72  71 S13       29.76R
WAYNE          CLEAR     81  76  82 S17G23    29.73R
$$

NEZ050>053-065>068-078-088>093-220400-
SOUTHEAST NEBRASKA

CITY           SKY/WX    TMP DP  RH WIND       PRES   REMARKS
LINCOLN        CLEAR     85  73  67 S20G32    29.76R HX  91
OMAHA EPPLEY   CLEAR     84  72  67 S16       29.78R
BEATRICE       CLEAR     84  73  68 SE17G24   29.77R HX  91
FALLS CITY     CLEAR     83  72  69 S15G26    29.81R
NEBRASKA CITY  PTCLDY    82  75  80 S18G25    29.81S
PLATTSMOUTH    CLEAR     82  74  77 SE10G22   29.81R
$$

NEZ044-045-051>053-067-220400-
OMAHA AREA

CITY           SKY/WX    TMP DP  RH WIND       PRES   REMARKS
OMAHA EPPLEY   CLEAR     84  72  67 S16       29.78R
BLAIR          CLEAR     83  73  71 S16G25    29.79R
FREMONT        CLEAR     83  72  69 SE14G21   29.77R
MILLARD        CLEAR     85  75  71 SE15      29.78R HX  93
OFFUTT AFB     CLEAR     82  73  72 SE16      29.78R
PLATTSMOUTH    CLEAR     82  74  77 SE10G22   29.81R
WAHOO          FAIR      82  73  72 SE17      29.77R
$$




USA.gov is the U.S. government's official web portal to all federal, state and local government web resources and services.